• In Hungary
  • List of Countries
  • For 7 days
  • Water Temperature
  • Satellite Maps
  • Weather Map
  • News
  • Weather Widgets
  • user-avatar
    Login

    Hourly Weather Puerto Galera

    Today, 17 December, Sunday

    Time Temperature Precipitation Wind Pressure Humidity
    00:00 +24°C° 0.8 mm 3 mps 752 mmHg 96%
    01:00 +23°C° 0.8 mm 4 mps 752 mmHg 96%
    02:00 +23°C° 0 mm 4 mps 751 mmHg 97%
    03:00 +25°C° 0.4 mm 4 mps 751 mmHg 96%
    04:00 +25°C° 0.4 mm 4 mps 751 mmHg 95%
    05:00 +25°C° 0.4 mm 5 mps 751 mmHg 94%
    06:00 +25°C° 0.5 mm 5 mps 751 mmHg 94%
    07:00 +25°C° 0.5 mm 5 mps 752 mmHg 93%
    08:00 +25°C° 0 mm 5 mps 752 mmHg 88%
    09:00 +25°C° 0.5 mm 5 mps 752 mmHg 89%
    10:00 +25°C° 0.5 mm 5 mps 752 mmHg 91%
    11:00 +25°C° 0.5 mm 4 mps 752 mmHg 92%
    12:00 +25°C° 1 mm 5 mps 752 mmHg 91%
    13:00 +24°C° 1 mm 6 mps 751 mmHg 90%
    14:00 +26°C° 0 mm 7 mps 751 mmHg 84%
    15:00 +26°C° 2.9 mm 7 mps 751 mmHg 87%
    16:00 +26°C° 2.9 mm 8 mps 750 mmHg 89%
    17:00 +26°C° 2.9 mm 8 mps 750 mmHg 92%
    18:00 +26°C° 6.1 mm 9 mps 750 mmHg 92%
    19:00 +27°C° 6.1 mm 10 mps 751 mmHg 93%
    20:00 +27°C° 0 mm 8 mps 751 mmHg 93%
    21:00 +27°C° 7.9 mm 8 mps 751 mmHg 93%
    22:00 +27°C° 7.9 mm 9 mps 751 mmHg 94%
    23:00 +27°C° 7.9 mm 9 mps 751 mmHg 95%

    Tomorrow, 18 December, Monday

    Time Temperature Precipitation Wind Pressure Humidity
    00:00 +27°C° 4.8 mm 9 mps 751 mmHg 95%
    01:00 +27°C° 4.8 mm 9 mps 751 mmHg 95%
    02:00 +27°C° 4.8 mm 9 mps 751 mmHg 94%
    03:00 +27°C° 1.4 mm 9 mps 751 mmHg 94%
    04:00 +27°C° 1.4 mm 9 mps 751 mmHg 94%
    05:00 +27°C° 1.4 mm 8 mps 751 mmHg 94%
    06:00 +27°C° 0.8 mm 8 mps 751 mmHg 94%
    07:00 +27°C° 0.8 mm 7 mps 751 mmHg 93%
    08:00 +27°C° 0.8 mm 7 mps 752 mmHg 92%
    09:00 +28°C° 0.6 mm 7 mps 752 mmHg 91%
    10:00 +28°C° 0.6 mm 6 mps 752 mmHg 89%
    11:00 +29°C° 0.6 mm 6 mps 752 mmHg 87%
    12:00 +29°C° 0.4 mm 5 mps 752 mmHg 86%
    13:00 +30°C° 0.4 mm 5 mps 752 mmHg 85%
    14:00 +30°C° 0.4 mm 4 mps 751 mmHg 83%
    15:00 +30°C° 0.4 mm 4 mps 751 mmHg 85%
    16:00 +29°C° 0.4 mm 4 mps 751 mmHg 87%
    17:00 +29°C° 0.4 mm 3 mps 751 mmHg 89%
    18:00 +28°C° 0.4 mm 3 mps 752 mmHg 91%
    19:00 +27°C° 0.4 mm 4 mps 752 mmHg 93%
    20:00 +26°C° 0.4 mm 4 mps 753 mmHg 94%
    21:00 +26°C° 0.1 mm 4 mps 753 mmHg 94%
    22:00 +26°C° 0.1 mm 4 mps 753 mmHg 94%
    23:00 +26°C° 0.1 mm 4 mps 753 mmHg 94%

    Day after tomorrow, 19 December, Tuesday

    Time Temperature Precipitation Wind Pressure Humidity
    00:00 +26°C° 0 mm 4 mps 753 mmHg 95%
    01:00 +26°C° 0 mm 3 mps 753 mmHg 95%
    02:00 +26°C° 0 mm 3 mps 752 mmHg 95%
    03:00 +26°C° 0.1 mm 3 mps 752 mmHg 95%
    04:00 +26°C° 0.1 mm 3 mps 752 mmHg 95%
    05:00 +26°C° 0.1 mm 3 mps 752 mmHg 95%
    06:00 +27°C° 0.1 mm 3 mps 752 mmHg 93%
    07:00 +27°C° 0.1 mm 3 mps 753 mmHg 90%
    08:00 +28°C° 0.1 mm 3 mps 753 mmHg 87%
    09:00 +29°C° 0.1 mm 3 mps 753 mmHg 82%
    10:00 +31°C° 0.1 mm 3 mps 753 mmHg 76%
    11:00 +33°C° 0.1 mm 3 mps 753 mmHg 70%
    12:00 +33°C° 0.3 mm 3 mps 753 mmHg 72%
    13:00 +31°C° 0.3 mm 3 mps 752 mmHg 74%
    14:00 +31°C° 0.3 mm 3 mps 752 mmHg 76%
    15:00 +30°C° 0.1 mm 4 mps 752 mmHg 80%
    16:00 +29°C° 0.1 mm 4 mps 752 mmHg 84%
    17:00 +28°C° 0.1 mm 4 mps 752 mmHg 88%
    18:00 +27°C° 0.1 mm 4 mps 752 mmHg 89%
    19:00 +27°C° 0.1 mm 4 mps 753 mmHg 91%
    20:00 +26°C° 0.1 mm 4 mps 754 mmHg 93%
    21:00 +26°C° 0.2 mm 4 mps 754 mmHg 93%
    22:00 +26°C° 0.2 mm 4 mps 754 mmHg 93%
    23:00 +26°C° 0.2 mm 4 mps 754 mmHg 93%

    20 December, Wednesday

    Time Temperature Precipitation Wind Pressure Humidity
    00:00 +26°C° 0.3 mm 4 mps 754 mmHg 94%
    01:00 +26°C° 0.3 mm 4 mps 754 mmHg 94%
    02:00 +26°C° 0.3 mm 4 mps 753 mmHg 94%
    03:00 +26°C° 0.6 mm 4 mps 753 mmHg 94%
    04:00 +26°C° 0.6 mm 5 mps 753 mmHg 94%
    05:00 +26°C° 0.6 mm 5 mps 753 mmHg 94%
    06:00 +27°C° 0.6 mm 5 mps 754 mmHg 93%
    07:00 +27°C° 0.6 mm 5 mps 754 mmHg 92%
    08:00 +27°C° 0.6 mm 6 mps 755 mmHg 91%
    09:00 +28°C° 0.2 mm 6 mps 755 mmHg 86%
    10:00 +29°C° 0.2 mm 6 mps 755 mmHg 81%
    11:00 +30°C° 0.2 mm 5 mps 755 mmHg 75%
    12:00 +30°C° 0.1 mm 5 mps 755 mmHg 74%
    13:00 +32°C° 0.1 mm 5 mps 754 mmHg 72%
    14:00 +32°C° 0.1 mm 5 mps 753 mmHg 71%
    15:00 +30°C° 0.2 mm 5 mps 753 mmHg 75%
    16:00 +29°C° 0.2 mm 6 mps 753 mmHg 79%
    17:00 +28°C° 0.2 mm 6 mps 753 mmHg 82%
    18:00 +28°C° 0.2 mm 6 mps 754 mmHg 84%
    19:00 +27°C° 0.2 mm 6 mps 755 mmHg 86%
    20:00 +27°C° 0.2 mm 6 mps 756 mmHg 88%
    21:00 +27°C° 0.2 mm 6 mps 756 mmHg 88%
    22:00 +27°C° 0.2 mm 6 mps 756 mmHg 89%
    23:00 +27°C° 0.2 mm 6 mps 756 mmHg 89%

    21 December, Thursday

    Time Temperature Precipitation Wind Pressure Humidity
    00:00 +27°C° 0.2 mm 7 mps 756 mmHg 89%
    01:00 +27°C° 0.2 mm 7 mps 755 mmHg 88%
    02:00 +26°C° 0.2 mm 7 mps 755 mmHg 88%
    03:00 +26°C° 0.2 mm 7 mps 754 mmHg 88%
    04:00 +26°C° 0.2 mm 7 mps 754 mmHg 88%
    05:00 +26°C° 0.2 mm 7 mps 754 mmHg 88%
    06:00 +27°C° 0.2 mm 7 mps 755 mmHg 87%
    07:00 +27°C° 0.2 mm 8 mps 755 mmHg 87%
    08:00 +27°C° 0.2 mm 8 mps 756 mmHg 86%
    09:00 +27°C° 0.2 mm 8 mps 756 mmHg 83%
    10:00 +28°C° 0.2 mm 8 mps 756 mmHg 81%
    11:00 +29°C° 0.2 mm 8 mps 756 mmHg 78%
    12:00 +28°C° 0.2 mm 8 mps 755 mmHg 79%
    13:00 +28°C° 0.2 mm 8 mps 754 mmHg 80%
    14:00 +28°C° 0.2 mm 8 mps 753 mmHg 81%
    15:00 +28°C° 0.2 mm 8 mps 753 mmHg 82%
    16:00 +27°C° 0.2 mm 8 mps 753 mmHg 83%
    17:00 +27°C° 0.2 mm 8 mps 753 mmHg 84%
    18:00 +27°C° 0.2 mm 8 mps 754 mmHg 85%
    19:00 +27°C° 0.2 mm 8 mps 755 mmHg 86%
    20:00 +27°C° 0.2 mm 8 mps 755 mmHg 86%
    21:00 +27°C° 0.3 mm 8 mps 755 mmHg 87%
    22:00 +26°C° 0.3 mm 8 mps 755 mmHg 87%
    23:00 +26°C° 0.3 mm 8 mps 755 mmHg 88%

    22 December, Friday

    Time Temperature Precipitation Wind Pressure Humidity
    00:00 +26°C° 0.2 mm 8 mps 755 mmHg 87%
    01:00 +26°C° 0.2 mm 8 mps 754 mmHg 87%
    02:00 +26°C° 0.2 mm 7 mps 753 mmHg 87%
    03:00 +26°C° 0.2 mm 7 mps 753 mmHg 87%
    04:00 +26°C° 0.2 mm 7 mps 753 mmHg 87%
    05:00 +26°C° 0.2 mm 7 mps 753 mmHg 88%
    06:00 +26°C° 0.2 mm 7 mps 754 mmHg 87%
    07:00 +27°C° 0.2 mm 7 mps 754 mmHg 87%
    08:00 +27°C° 0.2 mm 7 mps 755 mmHg 87%
    09:00 +28°C° 0.2 mm 7 mps 755 mmHg 84%
    10:00 +28°C° 0.2 mm 7 mps 754 mmHg 81%
    11:00 +29°C° 0.2 mm 7 mps 754 mmHg 78%
    12:00 +29°C° 0.2 mm 7 mps 753 mmHg 77%
    13:00 +29°C° 0.2 mm 7 mps 753 mmHg 77%
    14:00 +29°C° 0.2 mm 7 mps 752 mmHg 76%
    15:00 +29°C° 0.2 mm 7 mps 752 mmHg 79%
    16:00 +28°C° 0.2 mm 7 mps 752 mmHg 82%
    17:00 +27°C° 0.2 mm 7 mps 752 mmHg 84%
    18:00 +27°C° 0.3 mm 7 mps 753 mmHg 85%
    19:00 +27°C° 0.3 mm 7 mps 753 mmHg 86%
    20:00 +27°C° 0.3 mm 7 mps 754 mmHg 87%
    21:00 +27°C° 0.1 mm 7 mps 753 mmHg 87%
    22:00 +27°C° 0.1 mm 7 mps 753 mmHg 88%
    23:00 +27°C° 0.1 mm 7 mps 753 mmHg 88%
    Show more